Hundvaag 1 weather for Mar 1996
Month no. 105
Obs.
Da.
Temp. Dew Point Precip. Wind
Speed
Wind gusts Cloud cover Press. Humidity Wind dir. Sunny OPT
01.03.1996 -0,4   0,0     10          
02.03.1996 0,9   0,0     0          
03.03.1996 2,4   4,1     0          
04.03.1996 2,1   0,0     9          
05.03.1996 -2,1   0,0     8          
06.03.1996 1,7   1,0     0       1  
07.03.1996 -1,5   0,0     10       1  
08.03.1996 -2,6   0,0     10       1  
09.03.1996 1,2   0,0     10       1  
10.03.1996 3,4   0,0     10       1  
11.03.1996 -3,9   0,0     10       1  
12.03.1996 -0,9   0,0     2       1  
13.03.1996 -0,1   0,0     3       1  
14.03.1996 -0,5   0,0     3       1  
15.03.1996 1,1   0,0     0       1  
16.03.1996 -1,1   0,0     10       1  
17.03.1996 -2,0   0,0     10       1  
18.03.1996 -1,0   0,0     10       1  
19.03.1996 -0,7   0,0     0       1  
20.03.1996 0,9   0,1     0       1  
21.03.1996 3,2   0,0     0       1  
22.03.1996 -3,0   0,0     10          
23.03.1996 1,8   0,0     0          
24.03.1996 3,2   2,7     0          
25.03.1996 2,2   0,0     0       1  
26.03.1996 -0,5   1,1     2       1  
27.03.1996 0,7   1,7     0          
28.03.1996 2,6   12,0     0          
29.03.1996 -2,1   0,0     10       1  
30.03.1996 -1,4   0,0     10       1  
31.03.1996 -0,9   0,0     8       1  
Avrg/Sum 0,1   22,7     5,0       21